Wind_Speed
10 11 11 12 12 13 13 13 13 13 13 13 13 12 10 9 8 7 5 4 4 3 4 5 6 9 12 14 17 18 19 19 18 17 16 15 14 13 11 10 10 9 8
9 9 10 10 11 11 11 12 12 12 12 12 12 12 11 10 9 8 6 5 4 4 3 4 5 7 9 12 15 16 16 16 17 17 17 16 16 15 14 13 12 11 10
7 8 8 9 9 9 10 10 10 11 11 11 11 11 11 10 9 8 7 6 5 4 3 3 4 5 6 9 11 13 14 14 14 16 16 16 17 17 16 15 14 12 11
7 7 7 7 8 8 8 8 9 9 10 10 10 11 11 10 9 9 8 6 5 3 2 2 3 4 5 7 9 10 11 13 14 14 15 16 16 17 17 16 15 14 12
6 6 6 6 6 6 6 6 6 7 7 8 8 9 9 10 9 9 8 7 5 4 2 0 2 3 5 6 7 8 9 11 13 13 14 15 16 16 16 16 15 13 12
5 5 5 5 5 4 4 4 4 4 5 6 6 7 7 8 9 8 8 8 6 5 3 2 2 3 4 5 6 7 8 9 11 12 12 13 13 13 13 13 13 11 10
5 4 4 4 4 3 2 1 2 2 3 3 4 5 5 6 7 7 7 7 7 6 5 4 3 3 4 4 5 6 7 8 9 10 10 10 9 9 10 10 10 9 9
4 4 3 3 3 3 2 1 1 2 2 3 4 4 4 4 5 6 6 6 6 6 6 5 5 4 4 4 4 5 6 7 8 8 8 7 7 7 7 7 6 6 7
4 4 4 4 4 4 3 3 4 4 4 5 5 6 6 5 5 5 5 6 6 6 6 6 6 5 5 4 4 4 4 6 6 6 6 6 6 6 5 5 5 5 6
4 5 5 6 6 5 5 5 6 6 7 7 7 8 8 8 8 7 6 6 6 6 7 7 7 6 5 5 4 4 4 4 5 5 5 5 5 5 4 4 5 5 5
5 6 7 7 7 7 7 7 8 8 9 9 10 10 11 11 10 10 9 8 8 8 8 8 8 7 6 6 5 4 4 4 4 4 5 5 5 5 5 5 5 5 6
7 8 8 9 9 9 9 9 9 9 10 10 11 12 13 13 12 12 12 11 10 10 9 9 8 8 7 6 5 4 4 4 4 3 4 4 5 5 5 5 5 5 7
10 11 11 11 11 11 11 11 11 11 11 11 12 13 14 14 14 14 14 13 13 12 11 10 10 8 7 6 5 4 5 5 4 4 4 4 5 5 5 5 6 6 7
13 13 14 14 14 14 14 13 13 13 13 13 13 13 14 15 16 16 16 16 15 14 13 12 11 10 8 7 6 5 5 6 5 5 5 5 5 6 6 6 6 7 7
17 16 16 16 16 17 17 16 16 15 15 15 14 14 15 16 17 17 17 17 17 16 16 15 13 12 11 9 8 7 7 7 6 6 6 6 6 6 7 7 7 8 8
22 21 20 19 19 19 19 19 18 17 17 17 16 16 16 16 17 18 18 18 18 18 18 17 16 15 13 11 10 10 9 9 8 7 7 7 8 8 8 8 9 9 9
26 25 24 23 22 21 21 21 21 20 19 19 18 18 17 17 17 18 18 19 19 20 19 19 18 17 15 14 13 12 11 11 10 9 9 9 9 9 9 10 10 10 10
30 29 28 27 26 25 24 24 23 22 22 22 21 19 19 18 18 18 18 19 20 20 20 20 20 19 18 17 15 14 13 13 12 11 11 10 10 10 10 10 11 11 12
33 32 31 30 30 28 27 26 26 26 25 24 23 21 20 20 21 20 19 20 20 21 21 21 22 21 21 20 18 17 16 14 14 13 13 12 12 12 12 12 12 13 14
35 34 33 33 32 31 30 29 28 27 26 25 25 24 23 23 22 22 21 20 21 21 21 22 23 23 23 22 21 21 20 18 16 16 16 15 15 14 14 14 14 15 15
39 39 38 36 35 34 32 31 30 29 29 28 28 27 26 25 24 24 22 21 21 21 21 23 23 24 24 23 23 23 23 21 20 19 18 17 18 17 16 16 17 17 17
41 42 41 40 38 36 35 34 33 32 32 30 28 28 29 29 27 25 24 23 23 22 22 23 25 26 26 26 25 25 24 24 23 22 20 19 19 20 20 20 20 19 19
43 43 43 42 41 39 38 37 36 35 35 34 32 32 31 31 29 28 26 25 24 23 23 22 25 27 27 27 28 27 27 27 25 24 23 21 21 22 22 21 21 21 22
42 44 44 43 42 41 40 39 38 38 36 36 35 35 33 32 32 31 29 27 25 24 24 24 24 26 27 27 28 29 29 28 27 26 25 24 23 23 23 22 22 23 24
37 38 39 40 40 40 39 39 38 38 37 37 37 35 33 33 32 31 31 29 28 26 26 26 26 26 27 28 29 30 30 30 30 28 28 27 26 25 24 23 22 22 23
33 32 33 35 35 37 38 38 37 37 36 36 36 35 34 34 33 30 29 28 28 28 28 28 26 26 27 27 29 30 31 30 30 29 29 29 27 27 26 25 23 23 23
Wind_Direction
93 92 89 85 80 77 74 70 66 64 62 61 62 64 67 71 76 80 84 91 101 116 138 158 175 190 200 206 210 215 219 223 223 225 226 232 236 239 242 245 253 263 275
100 99 96 92 87 83 79 74 69 65 62 60 59 60 61 64 67 72 77 82 93 107 131 161 180 194 207 212 216 221 225 229 232 231 235 238 240 243 247 251 257 264 271
113 109 105 100 95 89 83 77 72 68 64 61 59 58 57 58 59 61 65 70 78 93 117 153 183 203 213 217 219 223 228 231 235 238 239 241 244 246 249 252 256 262 268
127 123 116 110 104 97 89 81 75 71 66 61 58 56 55 54 54 55 56 57 60 71 102 158 200 216 224 227 228 229 233 237 240 244 245 244 248 251 250 252 256 259 261
140 136 129 122 115 107 98 87 77 71 64 59 55 53 52 50 50 51 52 51 48 43 41 67 231 237 237 236 237 238 241 245 248 251 253 251 254 257 253 250 254 258 258
155 151 145 141 132 121 107 91 78 67 59 52 48 46 47 47 46 46 45 45 43 35 23 360 310 278 264 254 248 246 248 251 253 255 257 257 261 260 256 250 252 257 257
171 170 168 163 156 146 129 99 64 52 41 32 29 28 32 36 37 38 37 35 32 27 18 4 344 316 292 274 263 257 255 255 255 255 258 262 262 260 256 252 248 251 256
188 187 193 193 192 195 208 245 304 326 336 342 344 347 352 4 15 22 25 23 18 13 8 1 353 341 323 301 285 272 262 261 260 259 263 267 271 262 253 252 253 248 249
205 211 213 220 225 234 247 265 283 296 306 312 316 316 317 324 334 344 355 1 3 1 358 354 350 346 339 325 310 294 276 268 268 264 266 271 274 268 260 248 252 251 251
219 230 229 233 241 249 259 270 281 289 295 301 304 305 305 306 309 312 318 325 334 340 344 348 349 346 342 334 324 308 285 275 274 266 267 268 270 269 269 262 259 259 253
239 240 243 246 251 256 263 272 279 285 290 293 296 297 297 298 299 300 301 305 311 318 326 333 339 341 340 339 333 318 291 278 278 271 268 270 272 273 275 265 263 259 254
261 255 250 251 253 258 265 271 276 282 285 288 289 291 292 293 294 293 292 293 297 302 310 318 325 330 333 335 334 322 299 287 288 278 273 269 269 271 271 268 268 264 259
266 268 265 262 261 261 263 267 273 277 281 283 285 286 287 288 288 287 285 285 287 291 298 305 309 315 320 322 323 314 296 289 285 278 273 267 264 262 264 270 270 270 264
262 264 266 268 270 270 270 270 273 274 276 278 279 280 282 283 283 283 282 282 282 283 286 293 298 300 304 306 307 303 296 293 289 281 273 268 265 263 263 266 272 273 268
259 257 257 259 263 267 269 271 273 274 276 276 276 277 276 277 278 280 280 279 278 277 279 282 287 291 295 295 292 293 294 294 289 280 277 276 274 270 267 267 270 273 271
264 259 254 253 256 260 264 267 270 274 276 277 277 278 276 274 274 276 277 277 274 272 273 274 278 281 286 288 287 286 286 285 286 284 281 281 280 276 272 270 271 272 272
265 262 261 256 254 256 260 263 266 270 274 277 279 279 277 274 271 271 275 276 274 272 271 271 275 277 278 280 279 278 277 280 282 283 282 282 282 279 276 274 273 272 272
266 262 261 259 260 258 258 259 263 266 272 274 276 276 277 276 271 268 268 271 271 271 270 270 271 272 275 276 276 274 273 277 279 280 281 281 280 280 280 279 276 274 272
266 265 262 262 261 259 258 259 261 264 266 269 271 272 274 276 274 270 267 265 265 266 266 266 268 270 272 274 275 273 271 271 274 279 281 281 280 279 280 279 277 275 274
266 265 263 264 263 260 258 258 260 262 263 267 271 270 271 271 272 270 268 266 264 264 263 263 264 266 269 272 272 271 270 269 271 276 279 281 280 281 280 280 279 276 274
265 265 264 263 262 261 260 258 259 262 262 266 268 269 268 268 269 267 267 265 265 265 263 262 262 264 266 269 269 268 268 268 268 271 274 276 279 282 283 282 280 279 276
264 263 262 262 260 259 258 258 259 262 262 263 267 269 267 267 266 263 264 265 264 264 265 264 261 261 265 266 264 264 265 266 266 267 268 269 273 279 283 283 283 282 278
261 260 260 259 258 256 257 257 258 260 262 263 265 265 267 266 264 261 262 263 262 262 265 267 264 262 265 265 262 259 261 262 261 263 266 267 268 273 278 280 281 281 280
260 258 258 257 256 256 255 255 256 258 259 262 263 264 265 267 266 264 262 261 262 263 264 268 268 267 263 263 261 257 257 259 259 260 264 267 268 270 272 274 276 278 280
259 257 255 254 254 254 254 254 255 257 259 261 262 265 266 268 267 268 268 263 265 265 265 271 270 269 267 264 262 257 254 255 257 258 262 264 267 269 270 271 270 274 276
258 258 253 251 251 253 253 253 254 256 258 260 262 265 266 268 269 268 269 268 270 271 270 271 269 268 267 265 262 257 252 252 253 254 257 261 264 268 271 271 270 271 272
Height
5917 5916 5916 5915 5915 5915 5914 5914 5913 5913 5913 5912 5912 5911 5911 5910 5910 5909 5909 5908 5908 5908 5908 5908 5908 5908 5909 5910 5911 5912 5913 5914 5915 5915 5916 5917 5918 5918 5918 5918 5918 5918 5918
5919 5918 5918 5917 5917 5917 5917 5916 5916 5915 5914 5914 5913 5912 5912 5911 5911 5911 5910 5910 5909 5909 5909 5909 5909 5909 5909 5910 5910 5911 5912 5913 5913 5914 5915 5916 5916 5917 5917 5917 5917 5917 5917
5920 5920 5919 5919 5919 5919 5919 5918 5918 5917 5916 5916 5915 5914 5913 5912 5912 5911 5911 5911 5910 5910 5909 5909 5909 5909 5909 5910 5910 5911 5911 5912 5912 5913 5913 5914 5914 5915 5915 5915 5915 5915 5916
5920 5921 5921 5921 5921 5921 5921 5920 5920 5919 5918 5917 5916 5915 5914 5914 5913 5912 5912 5911 5911 5910 5910 5909 5909 5909 5909 5909 5910 5910 5910 5911 5911 5911 5912 5912 5912 5912 5912 5913 5913 5914 5914
5921 5922 5922 5922 5922 5922 5922 5922 5921 5921 5920 5919 5918 5917 5916 5915 5914 5913 5912 5912 5911 5911 5910 5910 5909 5909 5909 5909 5909 5909 5909 5909 5909 5909 5910 5910 5910 5910 5910 5910 5911 5912 5912
5922 5922 5922 5923 5923 5923 5923 5923 5922 5922 5921 5920 5919 5918 5917 5916 5915 5914 5913 5912 5912 5911 5910 5910 5909 5908 5908 5908 5908 5908 5908 5908 5908 5908 5908 5908 5908 5908 5908 5908 5909 5910 5910
5922 5922 5923 5923 5923 5924 5924 5923 5923 5923 5922 5921 5920 5919 5918 5917 5916 5915 5914 5913 5912 5911 5910 5909 5909 5908 5908 5908 5908 5907 5907 5907 5906 5906 5906 5906 5906 5906 5906 5907 5907 5908 5908
5922 5923 5923 5923 5923 5924 5924 5924 5923 5923 5922 5922 5921 5920 5919 5918 5917 5916 5914 5913 5912 5911 5910 5909 5908 5908 5907 5907 5907 5907 5906 5906 5905 5905 5905 5905 5905 5905 5905 5905 5905 5906 5907
5922 5922 5923 5923 5923 5923 5923 5923 5923 5923 5922 5921 5921 5920 5919 5918 5917 5916 5914 5913 5912 5911 5910 5909 5908 5908 5907 5906 5906 5906 5905 5905 5904 5904 5904 5904 5904 5904 5904 5904 5904 5905 5906
5922 5922 5922 5922 5923 5923 5923 5923 5922 5922 5921 5921 5920 5919 5918 5917 5916 5915 5914 5913 5912 5911 5910 5909 5908 5907 5906 5906 5905 5905 5904 5903 5903 5903 5903 5903 5903 5903 5903 5903 5903 5904 5904
5922 5922 5921 5921 5921 5921 5921 5921 5921 5921 5920 5920 5919 5918 5917 5916 5915 5914 5913 5912 5911 5910 5909 5908 5908 5907 5906 5905 5904 5904 5903 5902 5902 5902 5902 5902 5902 5902 5902 5902 5902 5903 5903
5920 5920 5920 5920 5920 5920 5920 5919 5919 5919 5918 5918 5917 5916 5915 5914 5913 5912 5912 5911 5910 5909 5908 5907 5907 5906 5905 5904 5904 5903 5902 5901 5901 5901 5901 5901 5901 5901 5901 5901 5901 5902 5902
5919 5918 5918 5918 5918 5918 5918 5917 5917 5916 5916 5915 5915 5914 5913 5912 5911 5910 5910 5909 5908 5908 5907 5906 5906 5905 5904 5904 5903 5902 5901 5901 5901 5900 5900 5900 5900 5900 5900 5900 5901 5901 5901
5918 5917 5916 5915 5915 5914 5914 5914 5914 5913 5913 5913 5912 5911 5910 5909 5908 5908 5907 5907 5906 5906 5905 5904 5904 5903 5903 5903 5902 5901 5900 5900 5900 5899 5899 5899 5899 5899 5899 5899 5899 5900 5900
5915 5915 5915 5914 5913 5912 5911 5911 5910 5910 5910 5909 5909 5908 5907 5906 5905 5904 5904 5904 5903 5903 5903 5902 5902 5901 5901 5901 5901 5900 5899 5899 5898 5898 5898 5898 5898 5898 5898 5898 5898 5898 5898
5909 5909 5910 5910 5909 5909 5908 5907 5906 5906 5905 5905 5904 5904 5904 5903 5902 5901 5900 5900 5900 5900 5900 5899 5899 5899 5898 5898 5898 5898 5897 5897 5897 5897 5896 5896 5896 5896 5896 5896 5896 5896 5896
5902 5903 5903 5903 5903 5903 5903 5902 5902 5901 5900 5900 5900 5900 5899 5899 5899 5898 5896 5896 5895 5896 5896 5896 5895 5896 5896 5896 5896 5896 5896 5895 5895 5895 5894 5894 5894 5894 5894 5894 5894 5894 5894
5894 5895 5895 5896 5896 5897 5897 5897 5896 5896 5896 5895 5895 5895 5894 5894 5894 5894 5893 5892 5891 5891 5891 5892 5892 5892 5892 5893 5893 5893 5893 5892 5892 5892 5892 5891 5891 5891 5892 5892 5891 5891 5891
5885 5886 5886 5887 5888 5889 5890 5891 5890 5890 5890 5890 5890 5890 5889 5889 5888 5888 5888 5888 5887 5887 5887 5888 5888 5888 5888 5889 5889 5889 5889 5889 5889 5888 5888 5889 5889 5889 5889 5889 5889 5888 5888
5876 5877 5878 5878 5879 5880 5881 5882 5883 5883 5883 5884 5884 5883 5884 5883 5883 5882 5882 5882 5882 5882 5883 5883 5883 5884 5884 5884 5884 5884 5885 5885 5886 5885 5885 5885 5885 5885 5886 5885 5885 5885 5885
5866 5867 5868 5869 5870 5871 5872 5874 5874 5875 5876 5876 5876 5876 5876 5877 5877 5876 5876 5876 5876 5876 5877 5877 5878 5878 5879 5879 5879 5879 5880 5880 5881 5881 5881 5881 5881 5881 5881 5882 5882 5881 5881
5856 5856 5857 5858 5860 5861 5863 5865 5866 5867 5867 5868 5868 5868 5869 5869 5870 5870 5869 5870 5870 5870 5870 5871 5871 5872 5873 5873 5873 5874 5875 5876 5876 5876 5877 5877 5877 5876 5877 5877 5877 5877 5876
5844 5844 5845 5847 5849 5851 5853 5856 5857 5858 5859 5859 5859 5860 5860 5861 5862 5862 5862 5863 5863 5864 5864 5864 5865 5865 5866 5866 5867 5868 5869 5869 5870 5871 5871 5872 5873 5873 5872 5872 5872 5871 5871
5833 5833 5834 5836 5838 5840 5843 5845 5848 5849 5850 5851 5851 5851 5852 5852 5853 5854 5854 5855 5856 5856 5856 5857 5857 5858 5858 5859 5859 5861 5862 5863 5864 5865 5866 5866 5867 5867 5868 5868 5867 5866 5865
5820 5821 5823 5825 5827 5830 5832 5835 5837 5840 5842 5842 5843 5843 5843 5844 5844 5845 5846 5847 5848 5848 5848 5849 5849 5850 5851 5851 5852 5853 5854 5856 5857 5858 5859 5860 5860 5861 5862 5862 5862 5862 5860
5810 5811 5813 5816 5818 5820 5822 5825 5828 5830 5832 5834 5835 5836 5836 5836 5836 5837 5838 5838 5839 5839 5840 5841 5841 5842 5843 5843 5844 5845 5847 5848 5850 5851 5852 5853 5853 5854 5855 5855 5856 5856 5855